Marysville, MI

6:47 PM EST on February 27, 2017 (GMT -0500)
Saint Clair County International

Weather History for KPHN - November, 2011

Change the Weather History Date:

Wednesday, November 23, 2011

  Actual Average (KMTC) Record (KMTC)
Temperature  
Mean Temperature 40 °F -  
Max Temperature 48 °F 44 °F 64 °F (1999)
Min Temperature 32 °F 32 °F 13 °F (1956)
Degree Days  
Heating Degree Days 25    
Moisture  
Dew Point 34 °F    
Average Humidity 78    
Maximum Humidity 100    
Minimum Humidity 54    
Precipitation  
Precipitation 0.00 in - - ()
Sea Level Pressure  
Sea Level Pressure 30.00 in    
Wind  
Wind Speed 9 mph (NNW)    
Max Wind Speed 13 mph    
Max Gust Speed 21 mph    
Visibility 10 miles    
Events Rain    
Averages and records for this station are not official NWS values.
T = Trace of Precipitation, MM = Missing Value Source: NWS Daily Summary

Daily Weather History Graph

Daily Weather History Graph

Search for Another Location

Airport or City:

Trip Planner

Search our weather history database for the weather conditions in past years. The results will help you decide how hot, cold, wet, or windy it might be!

Date:

Astronomy

Nov. 23, 2011 Rise Set
Actual Time 7:31 AM EST 5:00 PM EST
Civil Twilight 7:00 AM EST 5:31 PM EST
Nautical Twilight 6:25 AM EST 6:06 PM EST
Astronomical Twilight 5:52 AM EST 6:40 PM EST
Moon 5:33 AM EST (11/23) 3:42 PM EST (11/23)
Length of Visible Light 10h 31m
Length of Day
9h 28m
Waning Crescent, 4% of the Moon is Illuminated
Nov 23
Waning Crescent
Nov 25
New
Dec 2
First Quarter
Dec 10
Full
Dec 17
Last Quarter

Hourly Weather History & Observations

Time (EST) Temp. Windchill Dew Point Humidity Pressure Visibility Wind Dir Wind Speed Gust Speed Precip Events Conditions
12:17 AM 37.4 °F 29.8 °F 33.8 °F 87% 29.79 in 7.0 mi NNE 11.5 mph 17.3 mph N/A Rain Light Rain
12:37 AM 37.4 °F 29.8 °F 33.8 °F 87% 29.79 in 5.0 mi NNE 11.5 mph 20.7 mph N/A Rain Rain
12:57 AM 37.4 °F 30.3 °F 33.8 °F 87% 29.79 in 4.0 mi North 10.4 mph 16.1 mph N/A Rain Rain
1:17 AM 37.4 °F 29.8 °F 35.6 °F 93% 29.79 in 4.0 mi North 11.5 mph 18.4 mph N/A Rain Rain
1:36 AM 37.4 °F 30.8 °F 35.6 °F 93% 29.79 in 5.0 mi North 9.2 mph - N/A Rain Rain
1:57 AM 37.4 °F 31.4 °F 35.6 °F 93% 29.79 in 7.0 mi North 8.1 mph - N/A Rain Light Rain
2:16 AM 37.4 °F 29.8 °F 35.6 °F 93% 29.80 in 10.0 mi North 11.5 mph - N/A Rain Light Rain
2:37 AM 39.2 °F 33.6 °F 37.4 °F 93% 29.81 in 10.0 mi North 8.1 mph 16.1 mph N/A   Light Drizzle
2:57 AM 39.2 °F 34.2 °F 37.4 °F 93% 29.81 in 10.0 mi NNW 6.9 mph - N/A   Overcast
3:17 AM 39.2 °F 33.6 °F 37.4 °F 93% 29.81 in 10.0 mi North 8.1 mph - N/A   Overcast
3:37 AM 41.0 °F 34.3 °F 37.4 °F 87% 29.83 in 10.0 mi NNW 11.5 mph 18.4 mph N/A   Overcast
3:57 AM 39.2 °F 31.6 °F 35.6 °F 87% 29.84 in 10.0 mi NNW 12.7 mph 18.4 mph N/A   Overcast
4:17 AM 39.2 °F 32.5 °F 35.6 °F 87% 29.85 in 10.0 mi NNW 10.4 mph - N/A   Overcast
4:36 AM 39.2 °F 33.6 °F 35.6 °F 87% 29.87 in 10.0 mi NNW 8.1 mph - N/A   Overcast
4:57 AM 37.4 °F 30.8 °F 33.8 °F 87% 29.89 in 10.0 mi NNW 9.2 mph - N/A   Scattered Clouds
5:16 AM 37.4 °F 30.8 °F 33.8 °F 87% 29.89 in 10.0 mi NNW 9.2 mph - N/A   Scattered Clouds
5:37 AM 37.4 °F 31.4 °F 33.8 °F 87% 29.91 in 10.0 mi NW 8.1 mph - N/A   Mostly Cloudy
5:56 AM 37.4 °F 30.8 °F 33.8 °F 87% 29.92 in 10.0 mi NW 9.2 mph 16.1 mph N/A   Overcast
6:17 AM 37.4 °F 30.3 °F 33.8 °F 87% 29.93 in 10.0 mi NW 10.4 mph - N/A   Overcast
6:37 AM 37.4 °F 31.4 °F 33.8 °F 87% 29.95 in 10.0 mi NW 8.1 mph - N/A   Overcast
6:57 AM 37.4 °F 30.8 °F 33.8 °F 87% 29.97 in 10.0 mi NW 9.2 mph 17.3 mph N/A   Overcast
7:16 AM 37.4 °F 31.4 °F 33.8 °F 87% 29.98 in 10.0 mi NW 8.1 mph - N/A   Overcast
7:37 AM 37.4 °F 30.3 °F 33.8 °F 87% 29.99 in 10.0 mi NW 10.4 mph - N/A   Overcast
7:57 AM 37.4 °F 30.8 °F 33.8 °F 87% 30.00 in 10.0 mi NW 9.2 mph - N/A   Overcast
8:17 AM 37.4 °F 32.1 °F 33.8 °F 87% 30.02 in 10.0 mi NW 6.9 mph - N/A   Overcast
8:37 AM 37.4 °F 32.1 °F 33.8 °F 87% 30.03 in 10.0 mi NNW 6.9 mph - N/A   Overcast
8:57 AM 37.4 °F 32.1 °F 33.8 °F 87% 30.04 in 10.0 mi NW 6.9 mph - N/A   Scattered Clouds
9:17 AM 37.4 °F 30.8 °F 33.8 °F 87% 30.05 in 10.0 mi NNW 9.2 mph - N/A   Clear
9:37 AM 39.2 °F 32.5 °F 33.8 °F 81% 30.06 in 10.0 mi NNW 10.4 mph - N/A   Clear
9:57 AM 41.0 °F 34.7 °F 33.8 °F 76% 30.06 in 10.0 mi NNW 10.4 mph - N/A   Clear
10:17 AM 41.0 °F 35.2 °F 35.6 °F 81% 30.07 in 10.0 mi NNW 9.2 mph - N/A   Clear
10:37 AM 42.8 °F 37.5 °F 33.8 °F 70% 30.08 in 10.0 mi NNW 9.2 mph 16.1 mph N/A   Clear
10:57 AM 42.8 °F 37.5 °F 33.8 °F 70% 30.08 in 10.0 mi NW 9.2 mph - N/A   Clear
11:17 AM 44.6 °F 40.7 °F 33.8 °F 66% 30.09 in 10.0 mi NNW 6.9 mph - N/A   Clear
11:36 AM 44.6 °F 39.2 °F 33.8 °F 66% 30.08 in 10.0 mi NW 10.4 mph - N/A   Clear
11:57 AM 44.6 °F 40.7 °F 32.0 °F 61% 30.09 in 10.0 mi NNW 6.9 mph - N/A   Clear
12:17 PM 46.4 °F 43.5 °F 33.8 °F 62% 30.09 in 10.0 mi NNW 5.8 mph - N/A   Clear
12:37 PM 46.4 °F 41.9 °F 32.0 °F 57% 30.09 in 10.0 mi NNW 9.2 mph - N/A   Clear
12:57 PM 46.4 °F 43.5 °F 33.8 °F 62% 30.09 in 10.0 mi NNW 5.8 mph - N/A   Clear
1:17 PM 46.4 °F 42.4 °F 33.8 °F 62% 30.09 in 10.0 mi North 8.1 mph - N/A   Clear
1:37 PM 46.4 °F 42.4 °F 33.8 °F 62% 30.10 in 10.0 mi WNW 8.1 mph - N/A   Clear
1:57 PM 46.4 °F 42.9 °F 33.8 °F 62% 30.11 in 10.0 mi NW 6.9 mph - N/A   Clear
2:17 PM 46.4 °F 42.4 °F 32.0 °F 57% 30.11 in 10.0 mi NNW 8.1 mph - N/A   Clear
2:37 PM 46.4 °F 43.5 °F 32.0 °F 57% 30.11 in 10.0 mi WNW 5.8 mph - N/A   Clear
2:57 PM 46.4 °F 43.5 °F 32.0 °F 57% 30.11 in 10.0 mi NNW 5.8 mph - N/A   Clear
3:16 PM 48.2 °F - 32.0 °F 54% 30.11 in 10.0 mi West 4.6 mph - N/A   Clear
3:37 PM 48.2 °F - 32.0 °F 54% 30.11 in 10.0 mi West 4.6 mph - N/A   Clear
3:57 PM 46.4 °F 43.5 °F 33.8 °F 62% 30.11 in 10.0 mi West 5.8 mph - N/A   Clear
4:17 PM 46.4 °F 43.5 °F 32.0 °F 57% 30.11 in 10.0 mi West 5.8 mph - N/A   Clear
4:37 PM 44.6 °F - 30.2 °F 57% 30.11 in 10.0 mi Calm Calm - N/A   Clear
4:57 PM 44.6 °F - 30.2 °F 57% 30.11 in 10.0 mi Calm Calm - N/A   Clear
5:16 PM 39.2 °F - 32.0 °F 75% 30.12 in 10.0 mi Calm Calm - N/A   Clear
5:37 PM 37.4 °F - 32.0 °F 81% 30.13 in 10.0 mi Calm Calm - N/A   Clear
5:57 PM 35.6 °F - 32.0 °F 87% 30.14 in 10.0 mi Calm Calm - N/A   Clear
6:17 PM 33.8 °F - 30.2 °F 87% 30.13 in 10.0 mi Calm Calm - N/A   Clear
6:37 PM 33.8 °F - 32.0 °F 93% 30.13 in 10.0 mi Calm Calm - N/A   Clear
6:57 PM 32.0 °F - 30.2 °F 93% 30.14 in 10.0 mi Calm Calm - N/A   Clear
7:17 PM 32.0 °F - 32.0 °F 100% 30.15 in 7.0 mi Calm Calm - N/A   Clear
7:36 PM 32.0 °F - 30.2 °F 93% 30.15 in 7.0 mi Calm Calm - N/A   Clear
7:57 PM 32.0 °F 28.7 °F 30.2 °F 93% 30.15 in 10.0 mi SSW 3.5 mph - N/A   Clear
8:17 PM 30.2 °F - 30.2 °F 100% 30.15 in 10.0 mi Calm Calm - N/A   Clear
8:37 PM 30.2 °F - 28.4 °F 93% 30.15 in 10.0 mi Calm Calm - N/A   Clear
8:57 PM 30.2 °F - 28.4 °F 93% 30.15 in 7.0 mi Calm Calm - N/A   Clear
9:17 PM 28.4 °F 24.6 °F 28.4 °F 100% 30.15 in 10.0 mi SSW 3.5 mph - N/A   Clear
9:37 PM 30.2 °F 26.7 °F 28.4 °F 93% 30.15 in 10.0 mi SW 3.5 mph - N/A   Clear
9:57 PM 30.2 °F 25.4 °F 28.4 °F 93% 30.15 in 10.0 mi SW 4.6 mph - N/A   Clear
10:17 PM 32.0 °F 28.7 °F 30.2 °F 93% 30.14 in 10.0 mi SW 3.5 mph - N/A   Clear
10:37 PM 32.0 °F 28.7 °F 28.4 °F 87% 30.14 in 10.0 mi SW 3.5 mph - N/A   Clear
10:57 PM 32.0 °F 28.7 °F 28.4 °F 87% 30.14 in 10.0 mi SSW 3.5 mph - N/A   Clear
11:17 PM 32.0 °F 28.7 °F 28.4 °F 87% 30.14 in 10.0 mi SSW 3.5 mph - N/A   Clear
11:37 PM 33.8 °F - 30.2 °F 87% 30.15 in 10.0 mi Calm Calm - N/A   Clear
11:56 PM 33.8 °F 30.8 °F 30.2 °F 87% 30.15 in 10.0 mi WSW 3.5 mph - N/A   Clear